Hourly Weather Roundup
Issued by NWS Central Illinois

Home | Current Version | Previous Version | Text Only | Print | Product List | Glossary On
Versions: 1 2 3 4 5 6 7 8 9 10 11 12 13 14 15 16 17 18 19 20 21 22 23 24 25 26 27 28 29 30 31 32 33 34 35 36 37 38 39 40 41 42 43 44 45 46 47 48 49 50
000
NZUS43 KILX 110910
HWRILX

Area Weather Roundup
National Weather Service Lincoln IL
300 AM CST MON DEC 11 2017

NOTE:  "FAIR" indicates few or no clouds below 12,000 feet, with
       no sigificant weather and/or obstructions to visibility.


CITY           SKY/WX    TMP DP  RH WIND       PRES   REMARKS
Bloomington    CLOUDY    25  23  92 S7        30.05F WCI  17
Champaign      CLEAR     19  16  88 S6        30.07F WCI  11
Danville       CLOUDY    20  18  91 CALM      30.05R
Decatur        CLOUDY    25  21  85 S3        30.07F
Effingham      CLEAR     24  23  97 CALM      30.12S
Flora          CLEAR     26  23  89 CALM      30.12S
Galesburg      CLOUDY    29  25  85 S6        30.02F WCI  23
Jacksonville   CLOUDY    29  24  78 S5        30.05F WCI  24
Lacon          CLOUDY    25  23  93 S3        30.05S
Lawrenceville  CLEAR     25  21  85 S3        30.12S
Litchfield     CLOUDY    26  22  86 S3        30.06F
$$


CITY           SKY/WX    TMP DP  RH WIND       PRES   REMARKS
Lincoln        CLOUDY    26  24  90 CALM      30.07S
Macomb         CLOUDY    31  26  81 S6        30.05F WCI  25
Mattoon        CLEAR     23  21  92 S5        30.07F WCI  17
Mt Carmel AP   CLEAR     24  21  88 CALM      30.12F
Olney-Noble AP CLEAR     24  22  93 CALM      30.11F
Paris AP       CLOUDY    19  17  93 S6        30.10S WCI  11
Peoria         CLOUDY    27  24  89 S3        30.06F
Pontiac        CLOUDY    22  21  98 CALM      30.07R
Rantoul        CLOUDY    22  19  89 CALM      30.06F
Robinson       CLEAR     19  17  93 CALM      30.13R
Springfield    CLOUDY    29  24  82 CALM      30.07F
Taylorville    CLOUDY    25  21  87 SE5       30.07F WCI  19
$$

...REGIONAL REPORTS...


CITY           SKY/WX    TMP DP  RH WIND       PRES   REMARKS
Chicago O`Hare CLOUDY    24  17  74 SE5       30.00F WCI  18
Kankakee       CLOUDY    17  14  88 CALM      30.06F
Moline         PTCLDY    29  23  78 CALM      30.02F
Mount Sterling CLOUDY    31  25  80 S5        30.03F WCI  26
Mount Vernon   CLEAR     22  21  96 CALM      30.12F
Pittsfield     CLOUDY    33  26  77 S6        30.06S WCI  27
Quincy         CLOUDY    33  26  75 S6        30.03F WCI  28
Rockford       CLOUDY    21  18  88 S3        30.02S
$$


CITY           SKY/WX    TMP DP  RH WIND       PRES   REMARKS
Burlington     CLOUDY    29  24  82 S3        30.00F
Cedar Rapids   CLOUDY    29  23  78 S6        29.97F WCI  23
Des Moines     CLOUDY    32  25  75 S9        29.95F WCI  24
Kirksville     CLEAR     32  26  78 SW6       30.01F WCI  26
Ottumwa        CLEAR     30  23  75 S5        29.98F WCI  25
St Louis       CLEAR     29  24  82 CALM      30.08F
$$


CITY           SKY/WX    TMP DP  RH WIND       PRES   REMARKS
Terre Haute    CLEAR     21  18  88 CALM      30.10S
Evansville     CLEAR     26  24  92 CALM      30.14S
Indianapolis   CLEAR     23  19  85 W3        30.08F
Lafayette      CLOUDY    19  17  92 CALM      30.07F
Madison        CLOUDY    24  18  77 S5        29.97F WCI  18
Milwaukee      CLOUDY    22  15  75 CALM      30.00F
$$






USA.gov is the U.S. government's official web portal to all federal, state and local government web resources and services.